Evansville, IN

1:01 AM CDT on July 26, 2017 (GMT -0500)
Evansville Regional

Weather History for KEVV - August, 2013

Change the Weather History Date:

Saturday, August 3, 2013

  Actual Average Record
Temperature  
Mean Temperature 79 °F 78 °F  
Max Temperature 87 °F 88 °F 102 °F (1964)
Min Temperature 70 °F 67 °F 51 °F (1965)
Degree Days  
Heating Degree Days 0 0  
Month to date heating degree days 0 0  
Since 1 June heating degree days 1 6  
Since 1 July heating degree days 0 0  
Cooling Degree Days 14 13  
Month to date cooling degree days 35 39  
Year to date cooling degree days 853 875  
Since 1 June cooling degree days 682 740  
Growing Degree Days 28 (Base 50)    
Moisture  
Dew Point 68 °F    
Average Humidity 76    
Maximum Humidity 90    
Minimum Humidity 61    
Precipitation  
Precipitation 0.00 in 0.09 in 1.01 in (1992)
Month to date precipitation T 0.29  
Year to date precipitation 33.69 28.23  
Snow  
Snow 0.00 in 0.00 in 0.00 in (2002)
Month to date snowfall 0.0 0.0  
Since 1 June snowfall 0.0 0.0  
Since 1 July snowfall 0.0 0.0  
Snow Depth 0.00 in    
Sea Level Pressure  
Sea Level Pressure 29.99 in    
Wind  
Wind Speed 5 mph (WNW)    
Max Wind Speed 14 mph    
Max Gust Speed 17 mph    
Visibility 10 miles    
Events      
T = Trace of Precipitation, MM = Missing Value Source: NWS Daily Summary

Daily Weather History Graph

Daily Weather History Graph

Search for Another Location

Airport or City:

Trip Planner

Search our weather history database for the weather conditions in past years. The results will help you decide how hot, cold, wet, or windy it might be!

Date:

Astronomy

Aug. 03, 2013 Rise Set
Actual Time 5:54 AM CDT 7:57 PM CDT
Civil Twilight 5:25 AM CDT 8:25 PM CDT
Nautical Twilight 4:50 AM CDT 9:01 PM CDT
Astronomical Twilight 4:12 AM CDT 9:39 PM CDT
Moon 3:04 AM CDT (8/3) 5:38 PM CDT (8/3)
Length of Visible Light 15h 00m
Length of Day
14h 02m
Waning Crescent, 9% of the Moon is Illuminated
Aug 3
Waning Crescent
Aug 6
New
Aug 14
First Quarter
Aug 20
Full
Aug 28
Last Quarter

Hourly Weather History & Observations

Time (CDT) Temp. Heat Index Dew Point Humidity Pressure Visibility Wind Dir Wind Speed Gust Speed Precip Events Conditions
12:54 AM 72.0 °F - 64.9 °F 78% 29.97 in 10.0 mi Calm Calm - N/A   Mostly Cloudy
1:54 AM 70.0 °F - 66.0 °F 87% 29.96 in 10.0 mi Calm Calm - N/A   Scattered Clouds
2:54 AM 71.1 °F - 66.0 °F 84% 29.96 in 10.0 mi Calm Calm - N/A   Mostly Cloudy
3:54 AM 71.1 °F - 66.9 °F 87% 29.95 in 10.0 mi Calm Calm - N/A   Overcast
4:54 AM 73.0 °F - 66.9 °F 81% 29.95 in 10.0 mi Calm Calm - N/A   Overcast
5:54 AM 72.0 °F - 66.0 °F 81% 29.95 in 10.0 mi Calm Calm - N/A   Mostly Cloudy
6:54 AM 73.0 °F - 66.9 °F 81% 29.96 in 10.0 mi Calm Calm - N/A   Overcast
7:54 AM 73.9 °F - 66.9 °F 79% 29.98 in 10.0 mi Calm Calm - N/A   Mostly Cloudy
8:54 AM 75.9 °F - 68.0 °F 76% 29.99 in 10.0 mi WSW 4.6 mph - N/A   Overcast
9:54 AM 78.1 °F - 69.1 °F 74% 30.00 in 10.0 mi WSW 5.8 mph - N/A   Mostly Cloudy
10:54 AM 80.1 °F 83.2 °F 70.0 °F 71% 30.01 in 10.0 mi West 3.5 mph - N/A   Mostly Cloudy
11:54 AM 81.0 °F 84.4 °F 70.0 °F 69% 30.01 in 10.0 mi West 8.1 mph - N/A   Overcast
12:54 PM 81.0 °F 84.9 °F 71.1 °F 72% 30.01 in 9.0 mi West 10.4 mph - N/A   Overcast
1:54 PM 80.1 °F 83.6 °F 71.1 °F 74% 30.01 in 8.0 mi WSW 8.1 mph - N/A   Overcast
2:54 PM 84.9 °F 91.4 °F 73.0 °F 67% 30.00 in 10.0 mi West 8.1 mph - N/A   Mostly Cloudy
3:54 PM 84.0 °F 89.0 °F 71.1 °F 65% 29.99 in 10.0 mi NNW 8.1 mph - N/A   Partly Cloudy
4:54 PM 86.0 °F 91.5 °F 71.1 °F 61% 29.99 in 10.0 mi NW 8.1 mph - N/A   Clear
5:54 PM 84.0 °F 88.4 °F 70.0 °F 63% 29.99 in 10.0 mi NW 10.4 mph - N/A   Partly Cloudy
6:54 PM 84.0 °F 87.8 °F 69.1 °F 61% 29.98 in 10.0 mi NNW 6.9 mph - N/A   Clear
7:54 PM 81.0 °F 83.8 °F 68.0 °F 65% 30.00 in 10.0 mi NNW 5.8 mph - N/A   Clear
8:54 PM 78.1 °F - 66.9 °F 68% 30.02 in 10.0 mi North 5.8 mph - N/A   Clear
9:54 PM 75.9 °F - 66.0 °F 71% 30.05 in 10.0 mi North 5.8 mph - N/A   Clear
10:54 PM 75.0 °F - 64.9 °F 71% 30.06 in 10.0 mi Calm Calm - N/A   Clear
11:54 PM 73.0 °F - 64.0 °F 73% 30.07 in 10.0 mi North 3.5 mph - N/A   Clear